Showing default

IRIDIUM 156, 43576

Orbit data source: Space-Track

IRIDIUM 156, 43576 is a payload satellite owned by Iridium (US) in LEO that was launched on Wed, 25 Jul 2018 UTC via an FALCON 9 launch vehicle from the Air Force Western Test Range (AFWTR). Payload-class satellites include a variety of spacecraft equipped with specific instruments for various scientific and technological missions. These include communications satellites like Starlink; space stations such as the ISS; scientific satellites like the Hubble; Earth observation satellites from companies like Planet Labs, Umbra, and HawkEye 360; GPS; miniature CubeSats for education and research; and military/defense satellites.

Loading next visibility...
Identifier
43576, 2018-061H
Orbit
LEO
Country
Flag of USUS
Related business
Manufacturer
NGIS SSG Gilbert
Mission
Operational Commercial Communications
Bus & Motor
ELITEBUS, Unknown motor
Mass
860 kg wet, 700 kg dry
Launch date (UTC)
2018-07-25 (7 years ago)
Launch vehicle
FALCON 9
Launch site
Air Force Western Test Range (AFWTR)
Object type
Payload
Rocket body
Debris
Shape & HBR
Trap Box + 2 Pan, 4.8 m
Radar Cross Section
10.154 m², Large (>1 m²)

Expand to show TLE details & history
Last TLE update: 20 hours ago

TLE from 20 hours ago
0 IRIDIUM 156
1 43576U 18061H   25306.50928677  .00000036  00000-0  58720-5 0  9997
2 43576  86.3975 151.4961 0001835  83.1513 276.9892 14.34217867380883
Epoch: 2025-11-02T12:13Z
TLE epoch observation values (Epoch: 2025-11-02T12:13:22.376Z)
Latitude
-0°
Longitude
-73.87113°
Altitude
780.558 km
Speed
7.464 km/s
True Right ascension
10h 05m 59s
True Declination
0° 00' 00"
Sunlit
Object was in daylight at epoch
Visualization orbit readout
Latitude
Unknown
Longitude
Unknown
Altitude
Unknown
Speed
Unknown
Apparent Right ascension
Unknown
Apparent Declination
Unknown
Sunlit
N/A
Visualization observer readout
Local Sidereal Time
03:41:05
Azimuth
Unknown
Elevation
Unknown
Doppler factor
Unknown
Orbital elements
Apogee altitude
775.944 km
Perigee altitude
773.319 km
Semi-major axis
7,152.768 km
Eccentricity
0.00018
Inclination
86.3975°
RAAN
151.4961°
Arg. of periapsis
83.1513°
True anomaly
276.96833°
Mean anomaly
276.9892°
Eccentric anomaly
276.97876°
Mean motion
3.58783 °/min
Orbital period
100.34 mins
BSTAR
0.000005872
Loading maneuver chart data...
Computing Atmospheric mass density...
Loading historical data...
Loading historical data...
Loading historical data...
Loading historical data...
Loading historical data...
Loading historical data...
Loading historical data...

Documentation

Showing up to 5 results
|